Regional Weather Roundup
Issued by NWS

Home | Current Version | Previous Version | Graphics & Text | Print | Product List | Glossary On
Versions: 1 2 3 4 5 6 7 8 9 10 11 12 13 14 15 16 17 18 19 20 21 22 23 24 25 26 27 28 29 30 31 32 33 34 35 36 37 38 39 40 41 42 43 44 45 46 47 48 49 50
552
ASUS45 KCYS 250010
RWRWY

WYOMING REGIONAL WEATHER ROUNDUP
NATIONAL WEATHER SERVICE CHEYENNE WY
600 PM MDT TUE MAY 24 2016

NOTE:  "FAIR" INDICATES FEW OR NO CLOUDS BELOW 12,000 FEET
WITH NO SIGNIFICANT WEATHER AND/OR OBSTRUCTIONS TO VISIBILITY.

WYZ001-250100-
YELLOWSTONE NATIONAL PARK

CITY           SKY/WX    TMP DP  RH WIND       PRES   REMARKS
LK YELLOWSTONE   N/A     38  35  89 CALM      29.99R
6HR MIN TEMP:  38; 6HR MAX TEMP:  52; 6HR PCP:  0.05;

W YELLOWSTONE  NOT AVBL

$$
WYZ002>013-054>058-071-098>099-250100-
NORTHERN WYOMING

CITY           SKY/WX    TMP DP  RH WIND       PRES   REMARKS
JACKSON        PTSUNNY   43  39  87 SE5       29.94F
CODY           CLOUDY    52  45  76 N9        29.89R
GREYBULL       FAIR      65  33  30 N26G36    29.75F
6HR MIN TEMP:  64; 6HR MAX TEMP:  74;

WORLAND        CLOUDY    62  39  42 NE13G21   29.76R
6HR MIN TEMP:  62; 6HR MAX TEMP:  74;

SHERIDAN       PTSUNNY   63  40  42 S20G29    29.79F
6HR MIN TEMP:  63; 6HR MAX TEMP:  71;

BUFFALO        PTSUNNY   58  39  49 W18G36    29.83F
6HR MIN TEMP:  58; 6HR MAX TEMP:  67;

GILLETTE       TSTM      53  48  83 S13G43    29.81R
6HR MIN TEMP:  63; 6HR MAX TEMP:  72;

HULETT         LGT RAIN  59  45  58 SE13G21   29.84R
NEWCASTLE      FAIR      54  45  71 E17G23    29.85F

$$
WYZ014>020-022>026-101>103-250100-
CENTRAL WYOMING

CITY           SKY/WX    TMP DP  RH WIND       PRES   REMARKS
BIG PINEY      PTSUNNY   47  36  65 W6        29.96R
6HR MIN TEMP:  40; 6HR MAX TEMP:  59; 6HR PCP:  0.12;

PINEDALE       FAIR      43  36  75 NE5       29.97S
DUBOIS         CLOUDY    43  32  65 NW13      29.94S
LANDER         FAIR      53  38  56 N7        29.84R
6HR MIN TEMP:  48; 6HR MAX TEMP:  62; 6HR PCP:  0.01;

RIVERTON       FAIR      56  39  53 W20       29.85R
6HR MIN TEMP:  51; 6HR MAX TEMP:  69; 6HR PCP:  0.03;

CASPER         FAIR      70  23  17 SW15G29   29.75F
6HR MIN TEMP:  61; 6HR MAX TEMP:  71; 6HR PCP: TRACE;

DOUGLAS        FAIR      66  45  46 E6        29.79F
6HR MIN TEMP:  57; 6HR MAX TEMP:  69; 6HR PCP:  0.07;


$$
WYZ021-027>030-104>119-250100-
SOUTHERN WYOMING

CITY           SKY/WX    TMP DP  RH WIND       PRES   REMARKS
EVANSTON       FAIR      54  31  41 W23G30    29.92S
6HR MIN TEMP:  44; 6HR MAX TEMP:  57; 6HR PCP:  0.01;

KEMMERER         N/A     45  34  65 NW15G21   29.95S
FORT BRIDGER   TSTM      50  37  62 W17G28    29.98R
ROCK SPRINGS   FAIR      56  32  40 W13       29.91F
6HR MIN TEMP:  47; 6HR MAX TEMP:  66; 6HR PCP: TRACE;

DIXON          MOCLDY    64  25  22 SW9       29.89S
RAWLINS        PTSUNNY   68  19  15 SW30G40   29.85F
6HR MIN TEMP:  59; 6HR MAX TEMP:  69;

SARATOGA       FAIR      57  30  35 SW7G18    29.90S
LARAMIE        PTSUNNY   63  28  26 S23       29.86F
6HR MIN TEMP:  57; 6HR MAX TEMP:  64;

CHEYENNE       CLOUDY    56  44  64 SE17G25   29.90R
6HR MIN TEMP:  56; 6HR MAX TEMP:  68; 6HR PCP:  0.03;

TORRINGTON     FAIR      74  45  35 S32G43    29.75F
6HR MIN TEMP:  69; 6HR MAX TEMP:  77;

PINE BLUFFS    FAIR      57  48  72 E15       29.89R

$$




USA.gov is the U.S. government's official web portal to all federal, state and local government web resources and services.